TAP089 LPPT-SBGR

Flight info

Callsign TAP089
Flight time N/A
Altitude 35000
Route BEVOP DCT BAROK UN873 SAMAR N873 ODEGI/N0473F360 N873 IPERA DCT MOPAK DCT TARIM/N0473F380 DCT PINRU UN741 UDOPO/N0465F400 UN741 NISNI UZ38 EVPOM/N0405F240 Z6 VUNOX
Aircraft A339/H-SDE1E2E3GHIJ1J3J5M1P2RWXYZ/LB1D1

Departure

Time 2026-04-28 00:08
Airport Lisbon Humberto Delgado Airport (LPPT)

Arrival

Time N/A
Airport São Paulo/Guarulhos–Governor André Franco Montoro International Airport (SBGR)
Time Latitude Longitude Altitude Speed Heading
2026-04-27 23:55 38.77288 -9.13549 342 ft 0 kts 258°
2026-04-28 00:05 38.77283 -9.13581 343 ft 8 kts 258°
2026-04-28 00:05 38.77268 -9.13672 347 ft 9 kts 259°
2026-04-28 00:05 38.77260 -9.13723 349 ft 8 kts 259°
2026-04-28 00:06 38.77245 -9.13810 351 ft 6 kts 250°
2026-04-28 00:06 38.77187 -9.13865 351 ft 15 kts 204°
2026-04-28 00:06 38.77114 -9.13938 352 ft 10 kts 258°
2026-04-28 00:06 38.77136 -9.14012 353 ft 8 kts 297°
2026-04-28 00:07 38.77149 -9.14070 354 ft 4 kts 272°
2026-04-28 00:07 38.77159 -9.14087 355 ft 4 kts 328°
2026-04-28 00:07 38.77194 -9.14091 356 ft 6 kts 11°
2026-04-28 00:07 38.77391 -9.13991 362 ft 63 kts 22°
2026-04-28 00:08 38.77994 -9.13673 370 ft 122 kts 21°
2026-04-28 00:08 38.78947 -9.13149 353 ft 174 kts 22°
2026-04-28 00:08 38.80135 -9.12484 697 ft 191 kts 21°
2026-04-28 00:08 38.81373 -9.11860 1398 ft 191 kts 21°
2026-04-28 00:09 38.82554 -9.11029 2027 ft 201 kts 32°
2026-04-28 00:09 38.83757 -9.10023 2432 ft 213 kts 32°
2026-04-28 00:09 38.85079 -9.08994 2760 ft 229 kts 30°
2026-04-28 00:09 38.86513 -9.07958 3078 ft 246 kts 30°
2026-04-28 00:10 38.87827 -9.06510 3558 ft 256 kts 58°
2026-04-28 00:10 38.88371 -9.04327 4208 ft 261 kts 86°
2026-04-28 00:10 38.88079 -9.02062 4841 ft 266 kts 112°
2026-04-28 00:10 38.87172 -8.99988 5489 ft 267 kts 119°
2026-04-28 00:11 38.86112 -8.98013 6111 ft 271 kts 135°
2026-04-28 00:11 38.84437 -8.96874 6705 ft 277 kts 167°
2026-04-28 00:11 38.82510 -8.96912 7287 ft 282 kts 193°
2026-04-28 00:11 38.80593 -8.97617 7870 ft 285 kts 195°
2026-04-28 00:12 38.78702 -8.98312 8438 ft 287 kts 194°
2026-04-28 00:12 38.76751 -8.99013 9022 ft 289 kts 194°
2026-04-28 00:12 38.74843 -8.99815 9580 ft 291 kts 206°
2026-04-28 00:12 38.73059 -9.01124 10148 ft 294 kts 212°
2026-04-28 00:13 38.71320 -9.02560 10450 ft 306 kts 212°
2026-04-28 00:13 38.69465 -9.04087 10701 ft 320 kts 212°
2026-04-28 00:13 38.67526 -9.05650 10947 ft 334 kts 211°
2026-04-28 00:13 38.65507 -9.07249 11186 ft 348 kts 211°
2026-04-28 00:14 38.63411 -9.08892 11422 ft 361 kts 211°
2026-04-28 00:14 38.61221 -9.10594 11806 ft 369 kts 211°
2026-04-28 00:14 38.59010 -9.12305 12367 ft 372 kts 211°
2026-04-28 00:14 38.56771 -9.14032 12940 ft 374 kts 211°
2026-04-28 00:15 38.54523 -9.15764 13492 ft 377 kts 211°